FW5940 Weather Reports


Display with metric or nautical units.
time (UTC)temp
F
wind
direction
speed
MPH
gust
MPH
rain 1hr
in
rain 24hr
in
rain mn
in
humidity
%
barometer
mb
20260504050517 55 200 1.0 4.0 0.00 0.00 0.00 70 1015.3
20260504045516 55 186 0.0 2.0 0.00 0.00 0.00 70 1015.3
20260504044515 55 191 2.0 4.0 0.00 0.00 0.00 71 1015.3
20260504043519 54 196 2.0 4.0 0.00 0.00 0.00 71 1015.3
20260504042516 54 205 3.0 4.0 0.00 0.00 0.00 72 1015.3
20260504041556 54 209 1.0 2.0 0.00 0.00 0.00 72 1015.3
20260504040515 54 209 1.0 2.0 0.00 0.00 0.00 71 1015.3
20260504035518 54 209 0.0 2.0 0.00 0.00 0.00 70 1015.4
20260504034515 55 209 1.0 2.0 0.00 0.00 0.00 68 1015.4
20260504033515 56 201 3.0 5.0 0.00 0.00 0.00 68 1015.5
20260504032535 56 207 3.0 6.0 0.00 0.00 0.00 68 1015.4
20260504031516 56 209 2.0 3.0 0.00 0.00 0.00 67 1015.4
20260504030519 57 0.0 0.0 0.00 0.00 0.00 66 1015.3
20260504025516 57 208 1.0 2.0 0.00 0.00 0.00 64 1015.4
20260504024517 57 221 2.0 4.0 0.00 0.00 0.00 64 1015.5
20260504023516 57 232 2.0 3.0 0.00 0.00 0.00 64 1015.6
20260504022517 57 208 2.0 4.0 0.00 0.00 0.00 63 1015.6
20260504021516 58 207 2.0 5.0 0.00 0.00 0.00 62 1015.6
20260504020517 58 215 2.0 4.0 0.00 0.00 0.00 60 1015.6
20260504015516 58 228 3.0 7.0 0.00 0.00 0.00 59 1015.6
20260504014515 59 233 2.0 5.0 0.00 0.00 0.00 58 1015.7
20260504013537 59 259 3.0 7.0 0.00 0.00 0.00 57 1015.6
20260504012516 59 233 3.0 7.0 0.00 0.00 0.00 57 1015.6
20260504011517 59 270 4.0 10.0 0.00 0.00 0.00 56 1015.5
20260504010516 59 262 3.0 7.0 0.00 0.00 0.00 57 1015.4
20260504005518 60 254 3.0 9.0 0.00 0.00 0.00 57 1015.4
20260504004516 60 259 5.0 13.0 0.00 0.00 0.00 59 1015.4
20260504003515 60 245 2.0 8.0 0.00 0.00 0.00 60 1015.4
20260504002517 59 236 4.0 11.0 0.00 0.00 0.00 64 1015.2
20260504001515 60 222 4.0 7.0 0.00 0.00 0.00 64 1015.1
20260504000536 60 223 5.0 9.0 0.00 0.00 0.00 63 1015.0
20260503235516 60 213 6.0 10.0 0.00 0.00 0.00 63 1014.8
20260503234516 60 207 5.0 9.0 0.00 0.00 0.00 62 1014.6
20260503233516 60 211 5.0 9.0 0.00 0.00 0.00 62 1014.6
20260503232515 59 211 4.0 7.0 0.00 0.00 0.00 63 1014.5
20260503231517 58 225 4.0 7.0 0.00 0.00 0.00 64 1014.5
20260503230516 58 239 3.0 8.0 0.00 0.00 0.00 66 1014.3
20260503225515 59 213 2.0 4.0 0.00 0.00 0.00 63 1014.1
20260503224536 59 188 1.0 4.0 0.00 0.00 0.00 63 1013.9
20260503223518 59 187 1.0 2.0 0.00 0.00 0.00 62 1013.8
20260503222516 59 191 2.0 4.0 0.00 0.00 0.00 63 1013.9
20260503221515 59 209 2.0 5.0 0.00 0.00 0.00 62 1013.8
20260503220517 59 229 1.0 3.0 0.00 0.00 0.00 62 1013.8
20260503215535 59 214 2.0 4.0 0.00 0.00 0.00 61 1013.7
20260503214517 59 227 1.0 3.0 0.00 0.00 0.00 61 1013.6
20260503213515 60 226 1.0 3.0 0.00 0.00 0.00 61 1013.6
20260503212518 60 231 2.0 4.0 0.00 0.00 0.00 60 1013.5
20260503211517 61 213 2.0 3.0 0.00 0.00 0.00 60 1013.3
20260503210515 61 209 1.0 2.0 0.00 0.00 0.00 59 1013.2
20260503205517 61 209 1.0 2.0 0.00 0.00 0.00 58 1013.1
20260503204515 61 209 1.0 2.0 0.00 0.00 0.00 59 1013.0
20260503203515 61 222 1.0 3.0 0.00 0.00 0.00 59 1013.0
20260503202516 62 229 1.0 3.0 0.00 0.00 0.00 58 1012.8
20260503201517 62 229 1.0 2.0 0.00 0.00 0.00 57 1012.8
20260503200516 63 231 1.0 3.0 0.00 0.00 0.00 56 1012.8
20260503195516 63 0.0 0.0 0.00 0.00 0.00 55 1012.6
20260503194536 63 0.0 0.0 0.00 0.00 0.00 54 1012.6
20260503193516 64 249 1.0 2.0 0.00 0.00 0.00 53 1012.7
20260503192515 64 250 1.0 2.0 0.00 0.00 0.00 52 1012.6
20260503191516 65 250 0.0 2.0 0.00 0.00 0.00 50 1012.6
20260503190516 67 267 1.0 2.0 0.00 0.00 0.00 48 1012.5
20260503185517 67 269 2.0 5.0 0.00 0.00 0.00 47 1012.5
20260503184515 68 268 3.0 8.0 0.00 0.00 0.00 47 1012.4
20260503183517 69 270 3.0 7.0 0.00 0.00 0.00 45 1012.3
20260503182516 70 273 5.0 10.0 0.00 0.00 0.00 43 1012.2
20260503181515 70 274 5.0 11.0 0.00 0.00 0.00 42 1012.0
20260503180516 71 289 2.0 5.0 0.00 0.00 0.00 44 1011.9
20260503175516 72 307 2.0 3.0 0.00 0.00 0.00 41 1011.8
20260503174516 73 322 1.0 3.0 0.00 0.00 0.00 38 1011.7
20260503173515 73 321 2.0 7.0 0.00 0.00 0.00 37 1011.7
20260503172537 74 305 3.0 6.0 0.00 0.00 0.00 37 1011.7
20260503171515 75 308 4.0 10.0 0.00 0.00 0.00 35 1011.8
20260503170557 75 307 5.0 10.0 0.00 0.00 0.00 34 1011.7
20260503150538 78 344 5.0 12.0 0.00 0.00 0.00 33 1011.5
20260503130516 79 335 4.0 8.0 0.00 0.00 0.00 34 1012.5
20260503110516 76 98 2.0 8.0 0.00 0.00 0.00 39 1014.0
20260503081520 70 276 2.0 6.0 0.00 0.00 0.00 46 1015.9
20260503080537 70 312 2.0 6.0 0.00 0.00 0.00 45 1015.9
20260503072537 67 257 3.0 7.0 0.00 0.00 0.00 51 1015.9